Date,TemperatureHighF,TemperatureAvgF,TemperatureLowF,DewpointHighF,DewpointAvgF,DewpointLowF,HumidityHigh,HumidityAvg,HumidityLow,PressureMaxIn,PressureMinIn,WindSpeedMaxMPH,WindSpeedAvgMPH,GustSpeedMaxMPH,PrecipitationSumIn
2013-4-1,40.1,34.3,23.3,35.0,25.6,13.4,83,71,49,29.94,29.62,20,4,20,0.15
2013-4-2,34.1,26.1,20.8,20.5,16.0,13.1,73,66,53,30.08,29.92,19,5,19,0.00
2013-4-3,35.9,27.9,20.6,20.0,15.3,9.4,76,60,40,30.35,30.07,13,4,15,0.00
2013-4-4,53.9,36.2,19.9,22.6,15.8,11.1,69,46,24,30.35,29.95,17,3,17,0.00
2013-4-5,46.2,36.2,26.0,24.1,16.4,10.0,64,45,35,30.10,29.89,20,5,20,0.00
2013-4-6,48.9,33.1,20.6,16.8,11.8,7.2,69,45,21,30.33,30.10,14,3,14,0.00
2013-4-7,65.8,48.6,38.8,34.2,23.8,11.2,62,39,27,30.13,29.81,37,8,37,0.00
2013-4-8,66.7,49.1,36.8,42.3,31.6,26.1,67,52,30,30.15,29.86,20,3,21,0.08
2013-4-9,62.6,51.9,43.1,44.2,39.4,35.8,80,63,45,30.13,29.83,19,4,19,0.55
2013-4-10,53.6,45.2,39.7,47.6,40.3,35.3,85,83,77,30.07,29.84,17,2,17,1.32
2013-4-11,39.5,34.9,32.5,35.3,29.8,26.4,85,82,72,30.14,29.95,10,2,10,0.08
2013-4-12,47.1,39.4,33.4,40.0,34.3,28.8,84,82,75,30.00,29.63,35,6,35,0.31
2013-4-13,52.1,39.8,34.3,36.0,31.3,28.1,82,72,51,29.97,29.81,14,3,14,0.02
2013-4-14,49.6,37.9,29.6,29.8,26.0,20.6,81,64,40,30.22,29.95,20,2,20,0.04
2013-4-15,70.9,49.1,29.6,44.0,32.5,21.7,72,54,34,30.23,30.12,23,6,23,0.00
2013-4-16,61.7,52.3,42.4,51.8,43.1,31.9,82,71,60,30.24,30.00,38,8,38,0.33
2013-4-17,58.6,43.6,30.7,35.4,29.6,25.3,81,60,34,30.35,30.23,13,2,13,0.00
2013-4-18,69.4,55.6,37.9,48.4,39.1,28.0,74,55,40,30.27,29.86,39,10,39,0.00
2013-4-19,72.5,57.5,38.8,54.7,47.0,30.6,80,68,50,29.86,29.48,36,8,36,0.55
2013-4-20,46.0,38.4,29.1,30.9,24.3,16.0,74,58,38,30.38,29.78,21,5,24,0.02
2013-4-21,50.5,34.5,25.7,22.5,18.3,14.3,70,53,30,30.65,30.38,12,3,12,0.00
2013-4-22,63.7,43.7,27.1,27.9,21.0,16.8,69,43,20,30.61,30.40,17,5,17,0.00
2013-4-23,66.4,47.2,32.9,34.7,27.1,16.7,69,48,26,30.41,30.05,20,6,20,0.00
2013-4-24,70.0,52.2,38.3,48.7,40.0,31.8,78,64,43,30.05,29.70,28,7,28,0.14
2013-4-25,60.6,43.8,33.8,31.7,27.3,22.8,78,55,28,30.31,29.98,15,3,15,0.04
2013-4-26,61.3,43.4,33.2,35.4,28.9,24.6,81,59,30,30.47,30.31,9,2,9,0.06
2013-4-27,70.3,49.6,32.3,33.1,28.4,23.8,72,48,23,30.45,30.27,9,2,9,0.00
2013-4-28,73.6,57.8,43.1,38.9,32.3,28.9,69,41,22,30.28,30.08,21,5,21,0.02
2013-4-29,63.5,52.6,46.7,48.7,41.4,35.9,78,66,55,30.15,30.07,26,7,26,0.09
2013-4-30,70.7,58.5,49.6,50.3,45.7,41.1,77,63,46,30.28,30.13,16,5,16,0.00